| time (UTC) | temp C | wind direction | speed KPH | gust KPH | rain 1hr cm | rain 24hr cm | rain mn cm | humidity % | barometer mb |
| 20260903192004 | 22 | 262 | 6.4 | 16.1 | 0.00 | 0.00 | 0.00 | 73 | 1014.6 |
| 20260903191004 | 22 | 280 | 4.8 | 16.1 | 0.00 | 0.00 | 0.00 | 72 | 1014.8 |
| 20260903184003 | 23 | 274 | 8.0 | 20.9 | 0.00 | 0.00 | 0.00 | 70 | 1014.7 |
| 20260903182003 | 23 | 265 | 6.4 | 20.9 | 0.00 | 0.00 | 0.00 | 67 | 1014.5 |
| 20260903181004 | 23 | 267 | 6.4 | 32.2 | 0.00 | 0.00 | 0.00 | 66 | 1014.7 |
| 20260903180005 | 23 | 265 | 9.7 | 22.5 | 0.00 | 0.00 | 0.00 | 66 | 1014.7 |
| 20260903174003 | 24 | 269 | 8.0 | 24.1 | 0.00 | 0.00 | 0.00 | 62 | 1014.7 |
| 20260903173003 | 25 | 272 | 12.9 | 25.7 | 0.00 | 0.00 | 0.00 | 61 | 1014.8 |
| 20260903172003 | 25 | 259 | 9.7 | 29.0 | 0.00 | 0.00 | 0.00 | 61 | 1014.8 |
| 20260903171004 | 25 | 265 | 9.7 | 25.7 | 0.00 | 0.00 | 0.00 | 70 | 1014.4 |
| 20260903170005 | 25 | 263 | 8.0 | 20.9 | 0.00 | 0.00 | 0.00 | 71 | 1014.4 |
| 20260903165004 | 25 | 250 | 8.0 | 20.9 | 0.00 | 0.00 | 0.00 | 70 | 1014.6 |
| 20260903164004 | 25 | 259 | 9.7 | 20.9 | 0.00 | 0.00 | 0.00 | 69 | 1014.5 |
| 20260903163004 | 25 | 257 | 8.0 | 29.0 | 0.00 | 0.00 | 0.00 | 69 | 1014.6 |
| 20260903162003 | 25 | 255 | 11.3 | 22.5 | 0.00 | 0.00 | 0.00 | 67 | 1014.7 |
| 20260903161004 | 25 | 257 | 11.3 | 29.0 | 0.00 | 0.00 | 0.00 | 65 | 1014.6 |
| 20260903160005 | 26 | 259 | 9.7 | 19.3 | 0.00 | 0.00 | 0.00 | 65 | 1014.5 |
| 20260903155004 | 25 | 266 | 9.7 | 22.5 | 0.00 | 0.00 | 0.00 | 66 | 1014.7 |
| 20260903153004 | 26 | 265 | 6.4 | 20.9 | 0.00 | 0.00 | 0.00 | 65 | 1015.0 |
| 20260903152004 | 26 | 272 | 8.0 | 27.4 | 0.00 | 0.00 | 0.00 | 65 | 1015.0 |
| 20260903151003 | 25 | 255 | 11.3 | 24.1 | 0.00 | 0.00 | 0.00 | 65 | 1015.0 |
| 20260903145003 | 25 | 253 | 11.3 | 29.0 | 0.00 | 0.03 | 0.00 | 64 | 1015.1 |
| 20260903144005 | 26 | 266 | 9.7 | 24.1 | 0.00 | 0.03 | 0.00 | 63 | 1015.3 |
| 20260903143004 | 26 | 256 | 9.7 | 24.1 | 0.00 | 0.03 | 0.00 | 63 | 1015.4 |
| 20260903142003 | 25 | 264 | 11.3 | 33.8 | 0.00 | 0.03 | 0.00 | 65 | 1015.5 |
| 20260903141004 | 25 | 250 | 9.7 | 22.5 | 0.00 | 0.03 | 0.00 | 64 | 1015.6 |
| 20260903140004 | 26 | 255 | 9.7 | 24.1 | 0.00 | 0.03 | 0.00 | 64 | 1015.8 |
| 20260903135004 | 25 | 272 | 8.0 | 27.4 | 0.00 | 0.03 | 0.00 | 65 | 1015.6 |
| 20260903134004 | 25 | 270 | 9.7 | 17.7 | 0.00 | 0.03 | 0.00 | 66 | 1015.8 |
| 20260903133003 | 25 | 264 | 9.7 | 25.7 | 0.00 | 0.03 | 0.00 | 66 | 1015.9 |
| 20260903132005 | 25 | 268 | 9.7 | 33.8 | 0.00 | 0.03 | 0.00 | 67 | 1016.0 |
| 20260903131004 | 25 | 265 | 11.3 | 27.4 | 0.00 | 0.03 | 0.00 | 69 | 1016.1 |
| 20260903130004 | 24 | 270 | 9.7 | 29.0 | 0.00 | 0.03 | 0.00 | 70 | 1016.1 |
| 20260903125004 | 23 | 279 | 11.3 | 30.6 | 0.00 | 0.03 | 0.00 | 71 | 1016.3 |
| 20260903124004 | 23 | 264 | 11.3 | 30.6 | 0.00 | 0.03 | 0.00 | 71 | 1016.4 |
| 20260903122004 | 23 | 263 | 6.4 | 24.1 | 0.00 | 0.03 | 0.00 | 74 | 1016.5 |
| 20260903120004 | 23 | 271 | 8.0 | 20.9 | 0.00 | 0.03 | 0.00 | 73 | 1016.6 |
| 20260903115003 | 23 | 274 | 8.0 | 22.5 | 0.00 | 0.03 | 0.00 | 72 | 1016.6 |
| 20260903114003 | 23 | 261 | 8.0 | 24.1 | 0.00 | 0.03 | 0.00 | 73 | 1016.5 |
| 20260903113003 | 22 | 269 | 6.4 | 17.7 | 0.00 | 0.03 | 0.00 | 73 | 1016.5 |
| 20260903112004 | 22 | 265 | 8.0 | 22.5 | 0.00 | 0.03 | 0.00 | 74 | 1016.5 |
| 20260903111005 | 22 | 272 | 8.0 | 20.9 | 0.00 | 0.03 | 0.00 | 73 | 1016.5 |
| 20260903110005 | 22 | 279 | 8.0 | 22.5 | 0.00 | 0.03 | 0.00 | 73 | 1016.5 |
| 20260903105004 | 22 | 264 | 8.0 | 19.3 | 0.00 | 0.03 | 0.00 | 74 | 1016.5 |
| 20260903104005 | 22 | 260 | 8.0 | 25.7 | 0.00 | 0.03 | 0.00 | 75 | 1016.7 |
| 20260903103003 | 22 | 262 | 9.7 | 30.6 | 0.00 | 0.03 | 0.00 | 74 | 1016.6 |
| 20260903102004 | 22 | 263 | 11.3 | 25.7 | 0.00 | 0.03 | 0.00 | 76 | 1016.7 |
| 20260903101003 | 21 | 259 | 9.7 | 25.7 | 0.00 | 0.03 | 0.00 | 76 | 1016.7 |
| 20260903100004 | 21 | 261 | 11.3 | 27.4 | 0.00 | 0.03 | 0.00 | 76 | 1016.7 |
| 20260903095004 | 21 | 265 | 8.0 | 25.7 | 0.00 | 0.03 | 0.00 | 77 | 1016.7 |
| 20260903094003 | 21 | 266 | 6.4 | 30.6 | 0.00 | 0.03 | 0.00 | 79 | 1016.7 |
| 20260903093004 | 21 | 270 | 9.7 | 20.9 | 0.00 | 0.03 | 0.00 | 79 | 1016.7 |
| 20260903092005 | 21 | 263 | 8.0 | 24.1 | 0.00 | 0.03 | 0.00 | 80 | 1016.7 |
| 20260903091004 | 21 | 260 | 9.7 | 20.9 | 0.00 | 0.03 | 0.00 | 81 | 1016.7 |
| 20260903090005 | 20 | 269 | 9.7 | 20.9 | 0.00 | 0.03 | 0.00 | 80 | 1016.8 |
| 20260903084004 | 20 | 263 | 12.9 | 29.0 | 0.00 | 0.08 | 0.00 | 82 | 1016.5 |
| 20260903083004 | 20 | 266 | 9.7 | 29.0 | 0.00 | 0.08 | 0.00 | 84 | 1016.5 |
| 20260903082003 | 20 | 266 | 9.7 | 25.7 | 0.00 | 0.08 | 0.00 | 87 | 1016.3 |
| 20260903081004 | 19 | 263 | 8.0 | 30.6 | 0.00 | 0.08 | 0.00 | 88 | 1016.1 |
| 20260903080004 | 19 | 266 | 8.0 | 17.7 | 0.00 | 0.08 | 0.00 | 89 | 1015.9 |
| 20260903075004 | 19 | 265 | 8.0 | 24.1 | 0.00 | 0.08 | 0.00 | 89 | 1015.7 |
| 20260903073004 | 18 | 253 | 6.4 | 17.7 | 0.00 | 0.08 | 0.00 | 90 | 1015.3 |
| 20260903070004 | 18 | 258 | 6.4 | 17.7 | 0.00 | 0.08 | 0.00 | 90 | 1015.0 |
| 20260903064005 | 18 | 261 | 4.8 | 14.5 | 0.00 | 0.08 | 0.00 | 91 | 1015.1 |
| 20260903063004 | 18 | 254 | 6.4 | 19.3 | 0.00 | 0.08 | 0.00 | 91 | 1015.4 |
| 20260903062004 | 18 | 263 | 6.4 | 17.7 | 0.00 | 0.08 | 0.00 | 91 | 1015.4 |
| 20260903060004 | 18 | 260 | 6.4 | 16.1 | 0.00 | 0.08 | 0.00 | 91 | 1015.3 |
| 20260903053004 | 18 | 264 | 8.0 | 20.9 | 0.00 | 0.08 | 0.00 | 91 | 1015.1 |
| 20260903052003 | 18 | 258 | 6.4 | 16.1 | 0.00 | 0.08 | 0.00 | 91 | 1015.0 |
| 20260903050005 | 18 | 262 | 6.4 | 17.7 | 0.00 | 0.08 | 0.00 | 91 | 1015.0 |
| 20260903045004 | 18 | 254 | 6.4 | 20.9 | 0.00 | 0.08 | 0.00 | 91 | 1014.9 |
| 20260903044003 | 18 | 263 | 6.4 | 20.9 | 0.00 | 0.08 | 0.00 | 91 | 1014.9 |
| 20260903043004 | 18 | 250 | 6.4 | 14.5 | 0.00 | 0.08 | 0.00 | 91 | 1014.7 |
| 20260903042004 | 18 | 255 | 6.4 | 16.1 | 0.00 | 0.08 | 0.00 | 91 | 1014.8 |
| 20260903041003 | 18 | 252 | 6.4 | 17.7 | 0.00 | 0.08 | 0.00 | 91 | 1014.7 |
| 20260903035004 | 18 | 252 | 6.4 | 19.3 | 0.00 | 0.08 | 0.00 | 91 | 1014.9 |
| 20260903034003 | 18 | 250 | 8.0 | 20.9 | 0.00 | 0.08 | 0.00 | 91 | 1014.8 |
| 20260903033004 | 18 | 253 | 6.4 | 16.1 | 0.00 | 0.08 | 0.00 | 91 | 1014.9 |
| 20260903030004 | 18 | 242 | 4.8 | 14.5 | 0.00 | 0.08 | 0.00 | 91 | 1015.1 |
| 20260903024003 | 18 | 247 | 6.4 | 19.3 | 0.00 | 0.08 | 0.00 | 91 | 1015.0 |
| 20260903023004 | 18 | 242 | 4.8 | 19.3 | 0.00 | 0.08 | 0.00 | 91 | 1015.0 |
| 20260903022004 | 18 | 253 | 6.4 | 16.1 | 0.00 | 0.08 | 0.00 | 91 | 1015.1 |
| 20260903021004 | 18 | 252 | 6.4 | 16.1 | 0.00 | 0.08 | 0.00 | 91 | 1014.7 |
| 20260903020004 | 18 | 245 | 6.4 | 16.1 | 0.00 | 0.08 | 0.00 | 91 | 1014.8 |
| 20260903015003 | 18 | 252 | 6.4 | 19.3 | 0.00 | 0.08 | 0.00 | 91 | 1015.1 |
| 20260903013004 | 18 | 243 | 4.8 | 17.7 | 0.00 | 0.08 | 0.00 | 91 | 1015.1 |
| 20260903011004 | 18 | 252 | 6.4 | 17.7 | 0.00 | 0.08 | 0.00 | 91 | 1015.2 |
| 20260903010004 | 18 | 254 | 6.4 | 12.9 | 0.00 | 0.08 | 0.00 | 91 | 1015.3 |
| 20260903005004 | 18 | 250 | 6.4 | 22.5 | 0.00 | 0.08 | 0.00 | 91 | 1015.5 |
| 20260903004003 | 18 | 247 | 6.4 | 24.1 | 0.00 | 0.08 | 0.00 | 91 | 1015.6 |
| 20260903003004 | 18 | 246 | 4.8 | 16.1 | 0.00 | 0.08 | 0.00 | 91 | 1015.7 |
| 20260903002005 | 18 | 240 | 6.4 | 12.9 | 0.00 | 0.08 | 0.00 | 91 | 1015.6 |
| 20260903001004 | 18 | 249 | 6.4 | 19.3 | 0.00 | 0.08 | 0.00 | 91 | 1015.6 |
| 20260903000003 | 18 | 255 | 6.4 | 16.1 | 0.00 | 0.08 | 0.00 | 91 | 1015.7 |
| 20260902235003 | 18 | 263 | 4.8 | 19.3 | 0.00 | 0.08 | 0.00 | 91 | 1015.7 |
| 20260902233003 | 18 | 255 | 6.4 | 14.5 | 0.00 | 0.08 | 0.00 | 91 | 1015.6 |
| 20260902232003 | 18 | 254 | 6.4 | 17.7 | 0.00 | 0.08 | 0.00 | 91 | 1015.9 |
| 20260902231004 | 18 | 252 | 8.0 | 24.1 | 0.00 | 0.08 | 0.00 | 91 | 1015.9 |
| 20260902230004 | 18 | 251 | 6.4 | 19.3 | 0.00 | 0.08 | 0.00 | 91 | 1015.7 |
| 20260902225004 | 18 | 250 | 6.4 | 16.1 | 0.00 | 0.08 | 0.08 | 91 | 1015.7 |
| 20260902224004 | 18 | 248 | 6.4 | 22.5 | 0.00 | 0.08 | 0.08 | 92 | 1015.8 |
| 20260902223004 | 18 | 251 | 6.4 | 17.7 | 0.00 | 0.08 | 0.08 | 92 | 1016.0 |
| 20260902222004 | 18 | 250 | 6.4 | 16.1 | 0.00 | 0.08 | 0.08 | 92 | 1015.9 |
| 20260902221004 | 18 | 250 | 4.8 | 16.1 | 0.00 | 0.08 | 0.08 | 92 | 1015.9 |
| 20260902220005 | 18 | 241 | 4.8 | 16.1 | 0.00 | 0.08 | 0.08 | 92 | 1015.6 |
| 20260902215004 | 18 | 244 | 6.4 | 16.1 | 0.00 | 0.08 | 0.08 | 92 | 1015.5 |
| 20260902214003 | 18 | 239 | 3.2 | 19.3 | 0.00 | 0.08 | 0.08 | 92 | 1015.6 |
| 20260902213003 | 18 | 237 | 4.8 | 16.1 | 0.00 | 0.08 | 0.08 | 92 | 1015.5 |
| 20260902212003 | 18 | 248 | 4.8 | 14.5 | 0.00 | 0.08 | 0.08 | 92 | 1015.6 |
| 20260902211003 | 18 | 254 | 6.4 | 16.1 | 0.00 | 0.08 | 0.08 | 92 | 1015.6 |
| 20260902210003 | 18 | 249 | 6.4 | 20.9 | 0.00 | 0.08 | 0.08 | 92 | 1015.7 |
| 20260902205003 | 18 | 257 | 6.4 | 14.5 | 0.00 | 0.08 | 0.08 | 92 | 1015.5 |
| 20260902204004 | 18 | 242 | 6.4 | 17.7 | 0.00 | 0.08 | 0.08 | 92 | 1015.6 |
| 20260902203004 | 18 | 252 | 6.4 | 20.9 | 0.00 | 0.08 | 0.08 | 93 | 1015.6 |
| 20260902202004 | 18 | 243 | 6.4 | 14.5 | 0.00 | 0.08 | 0.08 | 93 | 1015.4 |
| 20260902201004 | 18 | 247 | 6.4 | 16.1 | 0.00 | 0.08 | 0.08 | 93 | 1015.5 |
| 20260902200004 | 18 | 258 | 8.0 | 17.7 | 0.00 | 0.08 | 0.08 | 93 | 1015.6 |
| 20260902195004 | 18 | 250 | 6.4 | 20.9 | 0.00 | 0.08 | 0.08 | 93 | 1015.6 |
| 20260902194001 | 18 | 242 | 4.8 | 19.3 | 0.00 | 0.08 | 0.08 | 94 | 1015.6 |